KN4RPA Weather Reports


time (UTC)temp
F
wind
direction
speed
knots
gust
knots
rain 1hr
in
rain 24hr
in
rain mn
in
humidity
%
barometer
mb
20260901014523 80 11 0.0 0.0 0.00 0.00 0.00 74 1016.5
20260901013023 80 11 0.0 0.0 0.00 0.00 0.00 73 1016.3
20260901011526 81 11 0.0 0.0 0.00 0.00 0.00 72 1016.2
20260901010022 81 11 0.0 0.0 0.00 0.00 0.00 71 1016.3
20260901004522 81 11 0.0 0.0 0.00 0.00 0.00 70 1016.1
20260901003020 82 11 0.0 0.0 0.00 0.00 0.00 70 1016.1
20260901001520 82 11 0.0 0.0 0.00 0.00 0.00 70 1016.0
20260901000020 82 11 0.0 0.0 0.00 0.00 0.00 70 1016.0
20260831234519 83 11 0.0 0.0 0.00 0.01 0.00 70 1015.9
20260831233018 84 11 0.0 0.0 0.00 0.01 0.00 69 1016.1
20260831231518 84 11 0.0 0.0 0.00 0.01 0.00 68 1016.1
20260831230018 84 11 0.0 0.0 0.00 0.01 0.00 66 1016.2
20260831224517 85 11 0.0 0.0 0.00 0.01 0.00 64 1016.3
20260831223018 85 12 0.0 1.7 0.00 0.01 0.00 63 1016.3
20260831221515 86 12 0.0 0.0 0.00 0.01 0.00 62 1016.4
20260831220016 86 12 0.0 1.7 0.00 0.01 0.00 62 1016.4
20260831214515 86 12 0.0 0.0 0.00 0.01 0.00 61 1016.3
20260831213014 86 12 0.0 1.7 0.00 0.01 0.00 61 1016.2
20260831211515 86 12 0.0 0.0 0.00 0.01 0.00 61 1016.1
20260831210013 86 12 0.0 0.9 0.00 0.01 0.00 61 1016.1
20260831204513 86 12 0.0 0.9 0.00 0.01 0.00 65 1016.1
20260831203013 86 12 0.0 0.9 0.00 0.01 0.00 63 1016.2
20260831201510 87 12 0.0 2.6 0.00 0.01 0.00 61 1016.3
20260831200015 87 11 0.0 1.7 0.00 0.01 0.00 60 1016.4
20260831194508 87 13 0.0 2.6 0.00 0.01 0.00 60 1016.3
20260831193009 87 13 0.0 0.9 0.00 0.01 0.00 58 1016.5
20260831191507 86 13 0.0 0.9 0.00 0.01 0.00 62 1016.7
20260831190007 87 13 0.0 0.9 0.00 0.01 0.00 57 1016.8
20260831184506 86 13 0.0 0.0 0.00 0.01 0.00 59 1016.7
20260831183005 88 13 0.0 0.9 0.00 0.01 0.00 57 1016.7
20260831181505 87 10 0.0 1.7 0.00 0.01 0.00 57 1016.8
20260831180006 88 9 0.0 0.9 0.00 0.01 0.00 59 1016.9
20260831174513 88 5 0.0 0.9 0.00 0.01 0.00 58 1017.0
20260831173002 87 5 0.0 1.7 0.00 0.01 0.00 57 1017.0
20260831171600 87 5 0.0 3.5 0.00 0.01 0.00 57 1017.3
20260831164613 86 5 0.0 1.7 0.00 0.01 0.00 62 1017.7
20260831163055 86 5 0.0 1.7 0.00 0.01 0.00 62 1017.8
20260831161652 86 5 0.0 1.7 0.00 0.01 0.00 63 1017.8
20260831160051 85 106 0.0 3.5 0.00 0.01 0.00 64 1017.8
20260831154552 85 29 0.0 1.7 0.00 0.01 0.00 65 1017.7
20260831153047 84 32 0.9 3.5 0.00 0.01 0.00 67 1017.8
20260831151550 81 24 0.0 2.6 0.00 0.01 0.00 72 1017.8
20260831150045 80 34 0.0 7.0 0.00 0.01 0.00 75 1017.7
20260831144538 79 37 0.0 3.5 0.00 0.01 0.00 78 1017.7
20260831143037 78 22 0.0 5.2 0.00 0.01 0.00 82 1017.8
20260831141529 77 42 0.0 2.6 0.00 0.01 0.00 86 1017.7
20260831140026 76 46 0.0 0.9 0.00 0.01 0.00 88 1017.5
20260831134523 75 42 0.0 1.7 0.00 0.01 0.00 90 1017.6
20260831133018 74 42 0.0 1.7 0.00 0.01 0.00 91 1017.7
20260831131517 74 42 0.0 1.7 0.00 0.01 0.00 92 1017.9
20260831130010 73 42 0.0 3.5 0.00 0.01 0.00 92 1018.0
20260831124508 73 42 0.0 2.6 0.00 0.01 0.00 92 1017.9
20260831123006 72 42 0.0 0.9 0.00 0.01 0.00 92 1018.0
20260831121504 72 42 0.0 2.6 0.00 0.01 0.00 92 1017.8
20260831120004 72 42 0.0 1.7 0.00 0.01 0.00 92 1017.6
20260831114600 71 42 0.0 0.9 0.00 0.01 0.00 91 1017.6
20260831114503 71 42 0.0 0.0 0.00 0.01 0.00 91 1017.6
20260831113059 71 42 0.0 0.9 0.00 0.01 0.00 91 1017.6
20260831111606 71 42 0.0 0.9 0.00 0.01 0.00 91 1017.3
20260831110054 70 42 0.0 0.0 0.00 0.01 0.00 90 1017.2
20260831104558 70 42 0.0 0.0 0.00 0.01 0.00 90 1016.8
20260831103053 70 42 0.0 0.0 0.00 0.01 0.00 90 1016.7
20260831101552 70 42 0.0 0.0 0.00 0.01 0.00 90 1016.4
20260831100057 70 42 0.0 0.0 0.00 0.01 0.00 89 1016.5
20260831094551 70 42 0.0 0.0 0.00 0.01 0.00 89 1016.6
20260831093052 70 42 0.0 0.0 0.00 0.01 0.00 89 1016.5
20260831091549 70 42 0.0 0.0 0.00 0.01 0.00 89 1016.5
20260831090049 70 42 0.0 0.0 0.00 0.01 0.00 89 1016.6
20260831084554 71 42 0.0 0.0 0.00 0.01 0.00 89 1016.6
20260831083050 71 42 0.0 0.0 0.00 0.01 0.00 88 1016.5
20260831081546 71 42 0.0 0.0 0.00 0.01 0.00 88 1016.5
20260831080045 71 42 0.0 0.0 0.00 0.01 0.00 88 1016.4
20260831074545 71 42 0.0 0.0 0.00 0.01 0.00 88 1016.5
20260831073044 72 42 0.0 0.0 0.00 0.01 0.00 88 1016.5
20260831071542 72 42 0.0 0.0 0.00 0.01 0.00 87 1016.4
20260831070042 72 42 0.0 0.0 0.00 0.01 0.00 87 1016.3
20260831064540 72 42 0.0 0.0 0.00 0.01 0.00 87 1016.4
20260831063038 72 42 0.0 0.0 0.00 0.01 0.00 87 1016.5
20260831061540 73 42 0.0 0.0 0.00 0.01 0.00 87 1016.5
20260831060039 73 42 0.0 0.0 0.00 0.01 0.00 86 1016.7
20260831054534 73 42 0.0 0.0 0.00 0.01 0.00 86 1016.7
20260831053033 73 42 0.0 0.0 0.00 0.01 0.00 86 1016.8
20260831051531 73 42 0.0 0.0 0.00 0.01 0.00 86 1017.0
20260831050030 73 42 0.0 0.0 0.00 0.01 0.00 86 1017.0
20260831044529 74 42 0.0 0.0 0.00 0.01 0.01 86 1016.9
20260831043028 74 42 0.0 0.0 0.00 0.01 0.01 86 1017.0
20260831041528 74 42 0.0 0.0 0.00 0.01 0.01 86 1017.0
20260831040027 74 42 0.0 0.9 0.00 0.01 0.01 86 1017.1
20260831034527 75 42 0.0 0.0 0.00 0.01 0.01 86 1017.2
20260831033034 74 42 0.0 0.0 0.00 0.01 0.01 85 1017.6
20260831031525 74 40 0.0 0.0 0.00 0.01 0.01 84 1017.8
20260831030026 74 40 0.0 0.0 0.00 0.01 0.01 84 1017.8
20260831024525 74 40 0.0 0.0 0.00 0.01 0.01 84 1017.9
20260831023026 74 40 0.0 0.0 0.00 0.01 0.01 83 1018.0
20260831021524 74 40 0.0 0.0 0.00 0.01 0.01 82 1017.9
20260831020024 75 40 0.0 0.0 0.00 0.01 0.01 81 1017.9